Tracking 35237 objects as of 5-Sep-2026
HD Live streaming from Space Station
objects crossing your sky now

COSMOS 686 DEB


COSMOS 686 DEB is no longer on orbit


NORAD ID: 7462
Int'l Code: 1974-074R
Launch date: September 26, 1974
Source: Commonwealth of Independent States (former USSR) (CIS)
Launch site: PLESETSK MISSILE AND SPACE COMPLEX (PKMTR)
Decay date: 1974-10-23

Note: This is SATELLITE DEBRIS
Your satellite tracking list
Your tracking list is empty




NASA's NSSDC Master Catalog

Two Line Element Set (TLE):
1 07462U 74074  R 74294.93145894  .03254708 +76917-2 +48400-2 0  9999
2 07462 071.2182 186.9727 0035087 051.8196 308.6126 16.04057570003931
Source of the keplerian elements: AFSPC